Jackson, MI

4:08 AM EST on November 21, 2019 (GMT -0500)
Jackson County-Reynolds

Weather History for KJXN - May, 2019

Change the Weather History Date:

Monday, May 20, 2019

  Actual Average Record
Temperature  
Mean Temperature 50 °F 59 °F  
Max Temperature 60 °F 70 °F 92 °F (1977)
Min Temperature 39 °F 47 °F 30 °F (2002)
Degree Days  
Heating Degree Days 15 7  
Month to date heating degree days 205 194  
Since 1 July heating degree days 6602 6540  
Cooling Degree Days 0 1  
Month to date cooling degree days 1 13  
Year to date cooling degree days 1 19  
Growing Degree Days 2 (Base 50)    
Moisture  
Dew Point 45 °F    
Average Humidity 81    
Maximum Humidity 96    
Minimum Humidity 66    
Precipitation  
Precipitation T in 0.11 in 0.86 in (1978)
Month to date precipitation 2.01 2.08  
Year to date precipitation 10.25 9.37  
Sea Level Pressure  
Sea Level Pressure 29.93 in    
Wind  
Wind Speed 9 mph (WSW)    
Max Wind Speed 21 mph    
Max Gust Speed 36 mph    
Visibility 10 miles    
Events      
T = Trace of Precipitation, MM = Missing Value Source: NWS Daily Summary

Daily Weather History Graph

Daily Weather History Graph

Search for Another Location

Airport or City:

Astronomy

May. 20, 2019 Rise Set
Actual Time 6:12 AM EDT 8:57 PM EDT
Civil Twilight 5:39 AM EDT 9:29 PM EDT
Nautical Twilight 4:58 AM EDT 10:11 PM EDT
Astronomical Twilight 4:11 AM EDT 10:58 PM EDT
Moon 10:57 PM EDT (5/20) 7:39 AM EDT (5/20)
Length of Visible Light 15h 50m
Length of Day
14h 44m
Waning Gibbous, 96% of the Moon is Illuminated
May 20
Waning Gibbous
May 26
Last Quarter
Jun 3
New
Jun 10
First Quarter
Jun 17
Full

Hourly Weather History & Observations

Time (EDT) Temp. Windchill Dew Point Humidity Pressure Visibility Wind Dir Wind Speed Gust Speed Precip Events Conditions
12:56 AM 60.1 °F - 57.0 °F 90% 29.73 in 10.0 mi SW 8.1 mph - N/A   Overcast
1:56 AM 57.0 °F - 55.0 °F 93% 29.74 in 10.0 mi SW 6.9 mph - N/A   Clear
2:15 AM 57.9 °F - 55.0 °F 90% 29.75 in 10.0 mi SW 8.1 mph - N/A   Mostly Cloudy
2:56 AM 57.0 °F - 53.1 °F 87% 29.76 in 10.0 mi WSW 10.4 mph - N/A   Overcast
3:56 AM 55.9 °F - 52.0 °F 87% 29.77 in 10.0 mi West 8.1 mph - N/A   Overcast
4:56 AM 54.0 °F - 48.0 °F 80% 29.79 in 10.0 mi WSW 10.4 mph - N/A   Overcast
5:08 AM 54.0 °F - 48.0 °F 80% 29.80 in 10.0 mi WSW 12.7 mph 19.6 mph N/A   Overcast
5:21 AM 54.0 °F - 46.9 °F 77% 29.80 in 10.0 mi WSW 9.2 mph 21.9 mph N/A   Overcast
5:56 AM 53.1 °F - 48.0 °F 83% 29.81 in 10.0 mi WSW 8.1 mph - N/A   Overcast
6:30 AM 53.1 °F - 48.0 °F 83% 29.82 in 10.0 mi WSW 12.7 mph 20.7 mph N/A   Overcast
6:39 AM 53.1 °F - 48.0 °F 83% 29.82 in 10.0 mi WSW 11.5 mph - N/A   Overcast
6:56 AM 52.0 °F - 48.0 °F 86% 29.82 in 10.0 mi WSW 11.5 mph 18.4 mph 0.00 in   Overcast
7:10 AM 52.0 °F - 46.9 °F 83% 29.83 in 10.0 mi WSW 10.4 mph - N/A   Overcast
7:56 AM 52.0 °F - 45.0 °F 77% 29.85 in 10.0 mi WSW 12.7 mph 29.9 mph N/A   Overcast
8:56 AM 50.0 °F - 46.9 °F 89% 29.87 in 10.0 mi West 10.4 mph 18.4 mph 0.00 in   Overcast
9:41 AM 48.9 °F - 45.0 °F 86% 29.91 in 9.0 mi West 12.7 mph 25.3 mph N/A   Overcast
9:56 AM 50.0 °F - 44.1 °F 80% 29.91 in 10.0 mi West 15.0 mph 25.3 mph N/A   Overcast
10:09 AM 50.0 °F - 44.1 °F 80% 29.92 in 10.0 mi WSW 12.7 mph 25.3 mph N/A   Overcast
10:19 AM 51.1 °F - 44.1 °F 77% 29.92 in 10.0 mi WSW 13.8 mph 25.3 mph N/A   Overcast
10:56 AM 48.9 °F - 43.0 °F 80% 29.94 in 10.0 mi West 8.1 mph 21.9 mph N/A   Overcast
11:56 AM 52.0 °F - 43.0 °F 71% 29.96 in 10.0 mi WSW 17.3 mph 31.1 mph N/A   Overcast
12:29 PM 52.0 °F - 42.1 °F 69% 29.96 in 10.0 mi WSW 13.8 mph 25.3 mph N/A   Overcast
12:39 PM 51.1 °F - 41.0 °F 68% 29.96 in 10.0 mi West 15.0 mph 23.0 mph N/A   Overcast
12:56 PM 51.1 °F - 41.0 °F 68% 29.97 in 10.0 mi West 12.7 mph 23.0 mph N/A   Overcast
1:21 PM 51.1 °F - 39.9 °F 66% 29.97 in 10.0 mi West 12.7 mph 24.2 mph N/A   Overcast
1:28 PM 51.1 °F - 39.9 °F 66% 29.97 in 10.0 mi West 13.8 mph 24.2 mph N/A   Overcast
1:56 PM 52.0 °F - 41.0 °F 66% 29.99 in 10.0 mi WSW 13.8 mph 23.0 mph N/A   Overcast
2:56 PM 52.0 °F - 41.0 °F 66% 30.01 in 10.0 mi West 12.7 mph 19.6 mph N/A   Overcast
3:56 PM 50.0 °F - 39.9 °F 68% 30.02 in 10.0 mi West 12.7 mph 21.9 mph N/A   Overcast
4:56 PM 48.9 °F - 39.9 °F 71% 30.05 in 10.0 mi West 13.8 mph 21.9 mph N/A   Overcast
5:56 PM 48.9 °F - 41.0 °F 74% 30.07 in 10.0 mi West 8.1 mph - N/A   Overcast
6:56 PM 48.9 °F - 41.0 °F 74% 30.08 in 10.0 mi WNW 5.8 mph - N/A   Overcast
7:56 PM 48.9 °F - 39.9 °F 71% 30.12 in 10.0 mi West 6.9 mph - N/A   Overcast
8:17 PM 48.9 °F - 41.0 °F 74% 30.11 in 10.0 mi West 5.8 mph - N/A   Overcast
8:56 PM 48.9 °F - 41.0 °F 74% 30.12 in 10.0 mi WNW 5.8 mph - N/A   Overcast
9:56 PM 48.0 °F - 41.0 °F 77% 30.11 in 10.0 mi WNW 4.6 mph - N/A   Mostly Cloudy
10:56 PM 43.0 °F 41.3 °F 41.0 °F 93% 30.14 in 10.0 mi WSW 3.5 mph - N/A   Clear
11:56 PM 44.1 °F - 41.0 °F 89% 30.13 in 10.0 mi Calm Calm - N/A   Clear